Hauptseite
METAR-TAF:

METAR-TAF

Flughäfen :

Militärflugplatz Luxeuil-Saint Sauveur

Luxeuil-les-Bains, Frankreich

Breite: 47-47N, Länge: 006-21E, Höhe: 278 m

Beobachtung

Neuester Wetterbericht von vor 16 Minuten, um 19:00 UTC
Wind 2 kt aus Nordost
Temperatur -1°C
Luftfeuchtigkeit 86%
Luftdruck 1017 hPa
Sichtweite: 7000 m

METAR: LFSX 181900Z AUTO 04002KT 7000 NSC M01/M03 Q1017

Zeit: 20:16 (19:16 UTC)

Prognose

Neuester Wetterbericht von vor 29 Stunden und 16 Minuten, um 14:00 UTC
Gültige Prognose vom 17 um 15 UTC bis 18 um 15 UTC
Wind 7 kt aus Südost
Sichtweite 10 km oder mehr
keine Wolken unter 1500 m und keine Kumulonimbus oder Gewitterwolken

TAF: LFSX 171400Z 1715/1815 13007KT CAVOK

Wetterbeobachtungen und Prognosen von mehr als 4000 Flughäfen (METAR und TAF Bericht).

Die verfügbaren Stationen werden durch gelbe und rote Markierungen auf der Karte dargestellt.

Führen Sie die Maus auf sie, um den Namen der Station zu sehen.

Darauf klicken, um die Beobachtung von Wetterbeobachtungen und Prognosen zu sehen.

Um die Karte zu ändern : klicken Sie auf den grünen Tasten mit einem schwarzen Kreuz Zum Vergrößern, auf den grünen Button mit einem Gedankenstrich zu verkleinern, oder auf die grünen Pfeile für benachbarte Karten.


METAR-TAF: